DW7699 Weather Reports


Display with metric or nautical units.
time (UTC)temp
F
wind
direction
speed
MPH
gust
MPH
rain 1hr
in
rain 24hr
in
rain mn
in
humidity
%
barometer
mb
20260504044540 43 0 0.0 0.0 0.00 0.00 0.00 63 1009.7
20260504043043 44 0 0.0 0.0 0.00 0.00 0.00 63 1009.9
20260504041547 45 0 0.0 1.0 0.00 0.00 0.00 63 1009.9
20260504040107 47 0 0.0 6.0 0.00 0.00 0.00 59 1010.0
20260504034543 47 0 0.0 2.0 0.00 0.00 0.00 58 1010.1
20260504033045 49 0 0.0 12.0 0.00 0.00 0.00 55 1010.1
20260504031553 47 0 0.0 0.0 0.00 0.00 0.00 58 1010.2
20260504030044 47 0 0.0 0.0 0.00 0.00 0.00 60 1010.3
20260504024544 48 0 0.0 0.0 0.00 0.00 0.00 60 1010.3
20260504023042 49 0 0.0 0.0 0.00 0.00 0.00 57 1010.3
20260504021543 49 0 0.0 0.0 0.00 0.00 0.00 58 1010.2
20260504014543 49 0 0.0 0.0 0.00 0.00 0.00 59 1010.2
20260504013046 52 0 0.0 0.0 0.00 0.00 0.00 53 1010.3
20260504011543 55 0 0.0 0.0 0.00 0.00 0.00 44 1010.5
20260504010053 59 0 0.0 0.0 0.00 0.00 0.00 38 1010.6
20260504004543 60 0 1.0 6.0 0.00 0.00 0.00 34 1010.6
20260504003041 61 302 2.0 9.0 0.00 0.00 0.00 33 1010.7
20260504001549 61 292 1.0 8.0 0.00 0.00 0.00 36 1010.9
20260504000050 61 323 1.0 11.0 0.00 0.00 0.00 36 1010.9
20260503234601 62 285 2.0 9.0 0.00 0.00 0.00 39 1011.2
20260503233048 63 287 3.0 9.0 0.00 0.00 0.00 39 1011.3
20260503231542 65 286 2.0 8.0 0.00 0.00 0.00 38 1011.3
20260503230041 64 300 2.0 9.0 0.00 0.00 0.00 40 1011.4
20260503224543 66 325 3.0 10.0 0.00 0.00 0.00 37 1011.4
20260503223042 66 305 3.0 8.0 0.00 0.00 0.00 35 1011.7
20260503221555 66 0 4.0 10.0 0.00 0.00 0.00 37 1011.7
20260503220043 69 0 1.0 9.0 0.00 0.00 0.00 35 1011.9
20260503214538 66 301 1.0 10.0 0.00 0.00 0.00 37 1012.1
20260503213046 65 290 1.0 9.0 0.00 0.00 0.00 39 1012.5
20260503211546 64 178 2.0 10.0 0.00 0.00 0.00 33 1012.9
20260503210043 60 258 1.0 10.0 0.00 0.00 0.00 44 1013.2
20260503204544 54 212 6.0 17.0 0.00 0.00 0.00 54 1013.8
20260503203055 54 279 5.0 16.0 0.00 0.00 0.00 60 1014.0
20260503201549 59 245 6.0 14.0 0.00 0.00 0.00 45 1014.2
20260503200054 63 0 0.0 8.0 0.00 0.00 0.00 40 1013.9
20260503194552 63 212 3.0 9.0 0.00 0.00 0.00 38 1013.9
20260503193043 65 0 1.0 5.0 0.00 0.00 0.00 34 1014.1
20260503191552 67 341 0.0 8.0 0.00 0.00 0.00 36 1014.1
20260503190041 66 44 1.0 7.0 0.00 0.00 0.00 42 1014.2
20260503184548 62 0 0.0 6.0 0.00 0.00 0.00 38 1014.4
20260503183051 65 0 1.0 4.0 0.00 0.00 0.00 41 1014.5
20260503181547 61 0 3.0 8.0 0.00 0.00 0.00 44 1014.7
20260503180057 59 74 3.0 7.0 0.00 0.00 0.00 48 1015.0
20260503174543 59 113 1.0 8.0 0.00 0.00 0.00 46 1015.4
20260503173041 61 118 0.0 9.0 0.00 0.00 0.00 45 1015.3
20260503171547 60 0 0.0 5.0 0.00 0.00 0.00 47 1015.3
20260503081542 42 0 0.0 1.0 0.00 0.00 0.00 67 1017.7